Location: Zagreb
(45.8000°N, 16.0000°E)
Time: 19:03:32
(UTC+01:00)

YUBILEINY - Pass Details

Date: 09 November 2020
Orbit: 1478 x 1509 km, 82.5° (Epoch: 01 December)

Event Time Altitude Azimuth Distance (km) Brightness Sun altitude
Rises 19:30:51 0° 353° (N) 4,610 ? -31.4°
Reaches altitude 10° 19:33:56 10° 359° (N) 3,627 ? -32.0°
Enters shadow 19:39:10 35° 26° (NNE) 2,210 ? -32.9°
